COSMOS 252 DEB, 19309

Orbit data source: Space-Track

COSMOS 252 DEB, 19309 is space debris in LEO originally from a launch on Fri, 01 Nov 1968 UTC launched from the Tyuratam Missile And Space Complex (TTMTR). Debris objects in space refer to the collection of defunct objects orbiting the Earth. Examples of debris include non-operational satellites, rocket bodies, and fragments generated from explosions, collisions, or faulty payload assembly.

Loading next visibility...
Identifier
19309, 1968-097ES
Orbit
LEO
Country
Flag of CISCIS
Related business
Manufacturer
Unknown
Mission
Spacecraft
Bus & Motor
Unknown
Mass
Unknown
Launch date (UTC)
1968-11-01 (57 years ago)
Launch vehicle
Unknown
Launch site
Tyuratam Missile And Space Complex (TTMTR)
Object type
Payload
Rocket body
Debris
Shape & HBR
Unknown shape, 0.1 m
Radar Cross Section
Small (<0.1 m²)

Expand to show TLE details & history
Last TLE update: 20 hours ago

TLE from 20 hours ago
0 COSMOS 252 DEB
1 19309U 68097ES  26121.59492883 -.00000065  00000-0  18946-4 0  9996
2 19309  62.3822  74.6736 0886150 259.2601  90.7540 13.04534892665138
Epoch: 2026-05-01T14:16Z
TLE epoch observation values (Epoch: 2026-05-01T14:16:41.850Z)
Latitude
-0.00001°
Longitude
0.97429°
Altitude
1,314.346 km
Speed
7.168 km/s
True Right ascension
04h 58m 41s
True Declination
0° 00' 00"
Sunlit
Object was in daylight at epoch
Visualization orbit readout
Latitude
Unknown
Longitude
Unknown
Altitude
Unknown
Speed
Unknown
Apparent Right ascension
Unknown
Apparent Declination
Unknown
Sunlit
N/A
Visualization observer readout
Local Sidereal Time
18:20:33
Azimuth
Unknown
Elevation
Unknown
Doppler factor
Unknown
Orbital elements
Apogee altitude
1,918.717 km
Perigee altitude
567.963 km
Semi-major axis
7,621.477 km
Eccentricity
0.08862
Inclination
62.3822°
RAAN
74.6736°
Arg. of periapsis
259.2601°
True anomaly
100.84054°
Mean anomaly
90.754°
Eccentric anomaly
95.80523°
Mean motion
3.262 °/min
Orbital period
110.36 mins
BSTAR
0.000018946
Loading maneuver chart data...
Computing Atmospheric mass density...
Loading historical data...
Loading historical data...
Loading historical data...
Loading historical data...
Loading historical data...
Loading historical data...
Loading historical data...

Documentation

Showing up to 5 results
|